Location: Unspecified
(50.7693°N, 0.0000°E)
Time: 04:48:07
(UTC+00:00)

Vanguard 1 Rocket - Pass Details

Date: 26 June 2019
Orbit: 651 x 4225 km, 34.3° (Epoch: 21 July)

Event Time Altitude Azimuth Distance (km) Brightness Sun altitude
Rises 15:02:25 0° 218° (SW) 8,364 12.9 45.9°
Reaches altitude 10° 15:09:45 10° 209° (SSW) 7,057 12.6 44.8°
Maximum altitude 15:26:44 30° 160° (SSE) 4,360 11.1 42.3°
Drops below altitude 10° 15:37:42 10° 107° (ESE) 4,553 10.7 40.6°
Sets 15:41:07 0° 96° (E) 5,115 10.8 40.1°
